Weather History for Rochester, NH

Change the Weather History Date:

Wednesday, January 1, 2014

  Actual Average (KSFM) Record (KSFM)
Temperature  
Mean Temperature 15 °F -  
Max Temperature 21 °F 32 °F 57 °F (2011)
Min Temperature 9 °F 15 °F -13 °F (1997)
Degree Days  
Heating Degree Days 50    
Moisture  
Dew Point 4 °F    
Average Humidity 60    
Maximum Humidity 84    
Minimum Humidity 42    
Precipitation  
Precipitation 0.00 in - - ()
Sea Level Pressure  
Sea Level Pressure 30.29 in    
Wind  
Wind Speed 4 mph (WNW)    
Max Wind Speed 16 mph    
Max Gust Speed 23 mph    
Visibility 10 miles    
Events      
Averages and records for this station are not official NWS values.
T = Trace of Precipitation, MM = Missing Value Source: NWS Daily Summary

Daily Weather History Graph

Daily Weather History Graph

Search for Another Location

Airport:

Trip Planner

Search our weather history database for the weather conditions in past years. The results will help you decide how hot, cold, wet, or windy it might be!

Date:

Astronomy

Jan. 01, 2014 Rise Set
Actual Time 7:15 AM EST 4:18 PM EST
Civil Twilight 6:43 AM EST 4:51 PM EST
Nautical Twilight 6:07 AM EST 5:27 PM EST
Astronomical Twilight 5:33 AM EST 6:01 PM EST
Moon 7:01 AM EST (1/1) 5:02 PM EST (1/1)
Length of Visible Light 10h 07m
Length of Day
9h 02m
New Moon, 0% of the Moon is Illuminated
Jan 1
New Moon
Jan 7
First Quarter
Jan 15
Full
Jan 24
Last Quarter
Jan 30
New

Hourly Weather History & Observations

Time (EST) Temp. Windchill Dew Point Humidity Pressure Visibility Wind Dir Wind Speed Gust Speed Precip Events Conditions
12:51 AM 15.1 °F 7.7 °F 9.0 °F 77% 30.14 in 10.0 mi Variable 4.6 mph - N/A   Clear
1:51 AM 10.0 °F - 6.1 °F 84% 30.15 in 10.0 mi Calm Calm - N/A   Clear
2:51 AM 10.9 °F - 6.1 °F 81% 30.18 in 10.0 mi Calm Calm - N/A   Clear
3:51 AM 12.0 °F - 5.0 °F 73% 30.20 in 10.0 mi Calm Calm - N/A   Clear
4:51 AM 9.0 °F - 3.0 °F 77% 30.22 in 10.0 mi Calm Calm - N/A   Clear
5:51 AM 12.0 °F 4.1 °F 3.9 °F 70% 30.23 in 10.0 mi SW 4.6 mph - N/A   Clear
6:51 AM 12.0 °F 4.1 °F 3.0 °F 67% 30.25 in 10.0 mi Variable 4.6 mph - N/A   Clear
7:51 AM 12.9 °F - 3.0 °F 65% 30.27 in 10.0 mi Calm Calm - N/A   Clear
8:51 AM 15.1 °F 6.4 °F 5.0 °F 64% 30.30 in 10.0 mi Variable 5.8 mph - N/A   Clear
9:51 AM 19.0 °F 11.1 °F 5.0 °F 54% 30.32 in 10.0 mi Variable 5.8 mph - N/A   Clear
10:51 AM 19.0 °F 10.0 °F 3.0 °F 50% 30.31 in 10.0 mi Variable 6.9 mph - N/A   Scattered Clouds
11:51 AM 21.0 °F 7.1 °F 1.9 °F 44% 30.29 in 10.0 mi WNW 16.1 mph 21.9 mph N/A   Scattered Clouds
12:51 PM 21.0 °F 9.9 °F 1.9 °F 44% 30.29 in 10.0 mi WNW 10.4 mph 23.0 mph N/A   Partly Cloudy
1:51 PM 21.0 °F 10.6 °F 1.0 °F 42% 30.29 in 10.0 mi WNW 9.2 mph 20.7 mph N/A   Partly Cloudy
2:51 PM 21.9 °F - 3.0 °F 44% 30.30 in 10.0 mi North - - N/A   Mostly Cloudy
3:51 PM 21.0 °F 13.4 °F 3.9 °F 48% 30.32 in 10.0 mi West 5.8 mph - N/A   Mostly Cloudy
4:51 PM 19.9 °F 12.1 °F 3.0 °F 48% 30.32 in 10.0 mi West 5.8 mph - N/A   Clear
5:51 PM 19.0 °F 11.1 °F 1.9 °F 47% 30.33 in 10.0 mi Variable 5.8 mph - N/A   Clear
6:51 PM 17.1 °F 11.7 °F 3.0 °F 54% 30.35 in 10.0 mi Variable 3.5 mph - N/A   Clear
7:51 PM 17.1 °F - 1.9 °F 52% 30.35 in 10.0 mi Calm Calm - N/A   Clear
8:51 PM 16.0 °F - 3.0 °F 57% 30.35 in 9.0 mi Calm Calm - N/A   Clear
9:51 PM 16.0 °F - 3.9 °F 59% 30.35 in 10.0 mi Calm Calm - N/A   Overcast
10:51 PM 14.0 °F 8.2 °F 5.0 °F 67% 30.37 in 10.0 mi North 3.5 mph - N/A   Overcast
11:51 PM 14.0 °F 6.5 °F 5.0 °F 67% 30.37 in 10.0 mi NW 4.6 mph - N/A   Overcast